{"data":{"norad_id":54157,"epoch":"2026-09-20T22:00:03.000096Z","epoch_age_seconds":53269,"freshness":"FRESH","line1":"1 54157U 22141A   26263.91670139  .00046944  00000+0  14510-2 0  9996","line2":"2 54157  53.1611 215.5075 0000935 109.9492 190.6181 15.33081326  5640","mean_motion":15.33081326,"eccentricity":9.35e-5,"inclination_deg":53.1611,"raan_deg":215.5075,"arg_perigee_deg":109.9492,"mean_anomaly_deg":190.6181,"bstar":0.001451,"rev_number":564,"period_min":93.928480869123,"perigee_km":465.98544104199,"apogee_km":467.26541161571,"semimajor_km":6844.7624263288,"source":"CELESTRAK","updated_at":"2026-09-21T09:00:33.086816Z"}}